Location: Centerville
(32.8776°N, 96.6203°W)
Time: 10:52:46
(UTC+00:00)

Cosmos 2237 - Pass Details

Date: 25 October 2021
Orbit: 845 x 856 km, 70.8° (Epoch: 08 December)

Event Time Altitude Azimuth Distance (km) Brightness Sun altitude
Exits shadow 09:12:38 12° 36° (NE) 2,379 6.9 -43.6°
Maximum altitude 09:14:18 13° 55° (NE) 2,284 6.9 -43.3°
Drops below altitude 10° 09:16:49 10° 81° (E) 2,483 7.2 -42.8°
Sets 09:20:49 0° 109° (ESE) 3,412 8.0 -42.0°
